RV1CJ-14 Weather Reports


Display with metric or nautical units.
time (UTC)temp
F
wind
direction
speed
MPH
gust
MPH
rain 1hr
in
rain 24hr
in
rain mn
in
humidity
%
barometer
mb
20260508151003 56 347 0.0 3.0 0.00 0.00 0.00 43 1021.4
20260508150004 56 348 0.0 2.0 0.00 0.00 0.00 42 1021.4
20260508145003 56 348 0.0 4.0 0.00 0.00 0.00 41 1021.4
20260508144003 56 348 1.0 3.0 0.00 0.00 0.00 43 1021.2
20260508143003 56 347 1.0 4.0 0.00 0.00 0.00 42 1021.3
20260508142003 56 343 0.0 3.0 0.00 0.00 0.00 43 1021.1
20260508141003 56 343 1.0 6.0 0.00 0.00 0.00 43 1021.1
20260508140003 57 343 0.0 3.0 0.00 0.00 0.00 43 1021.0
20260508135003 56 343 1.0 3.0 0.00 0.00 0.00 43 1021.0
20260508134003 56 343 0.0 4.0 0.00 0.00 0.00 42 1021.1
20260508133003 56 343 1.0 5.0 0.00 0.00 0.00 38 1020.8
20260508132003 57 344 1.0 4.0 0.00 0.00 0.00 42 1020.8
20260508131003 56 343 1.0 4.0 0.00 0.00 0.00 41 1020.8
20260508130003 56 343 1.0 3.0 0.00 0.00 0.00 49 1020.7
20260508125003 55 343 1.0 5.0 0.00 0.00 0.00 53 1020.7
20260508124003 54 343 1.0 4.0 0.00 0.00 0.00 57 1020.8
20260508123003 54 342 1.0 5.0 0.00 0.00 0.00 57 1020.7
20260508122003 54 342 1.0 3.0 0.00 0.00 0.00 59 1020.7
20260508121003 54 343 1.0 5.0 0.00 0.00 0.00 57 1020.7
20260508120004 54 342 1.0 3.0 0.00 0.00 0.00 59 1020.7
20260508115003 54 342 1.0 4.0 0.00 0.00 0.00 60 1020.7
20260508114003 54 342 1.0 3.0 0.00 0.00 0.00 59 1020.6
20260508113004 54 342 1.0 3.0 0.00 0.00 0.00 58 1020.5
20260508112003 54 342 1.0 4.0 0.00 0.00 0.00 58 1020.4
20260508111003 54 340 1.0 4.0 0.00 0.00 0.00 58 1020.4
20260508110003 54 306 1.0 4.0 0.00 0.00 0.00 57 1020.3
20260508105003 54 344 1.0 3.0 0.00 0.00 0.00 58 1020.3
20260508104003 54 344 1.0 3.0 0.00 0.00 0.00 58 1020.3
20260508103003 54 344 1.0 3.0 0.00 0.00 0.00 60 1020.1
20260508102003 54 344 0.0 4.0 0.00 0.00 0.00 60 1020.1
20260508101003 53 344 1.0 3.0 0.00 0.00 0.00 59 1020.1
20260508100003 53 344 1.0 4.0 0.00 0.00 0.00 57 1020.1
20260508095003 53 344 1.0 3.0 0.00 0.00 0.00 56 1020.0
20260508094003 54 344 1.0 3.0 0.00 0.00 0.00 53 1020.0
20260508093003 53 344 1.0 4.0 0.00 0.00 0.00 53 1020.0
20260508092003 53 344 1.0 4.0 0.00 0.00 0.00 53 1019.8
20260508091003 53 344 2.0 5.0 0.00 0.00 0.00 55 1019.8
20260508090003 53 344 1.0 3.0 0.00 0.00 0.00 55 1019.8
20260508085003 52 343 2.0 5.0 0.00 0.00 0.00 55 1019.7
20260508084004 53 343 1.0 3.0 0.00 0.00 0.00 54 1019.7
20260508083003 53 342 1.0 6.0 0.00 0.00 0.00 57 1019.6
20260508082003 53 342 1.0 3.0 0.00 0.00 0.00 58 1019.6
20260508081003 53 342 1.0 3.0 0.00 0.00 0.00 58 1019.4
20260508080003 53 342 1.0 3.0 0.00 0.00 0.00 57 1019.3
20260508075003 52 342 1.0 4.0 0.00 0.00 0.00 59 1019.1
20260508074003 52 342 1.0 5.0 0.00 0.00 0.00 57 1019.0
20260508073003 51 342 1.0 4.0 0.00 0.00 0.00 60 1018.8
20260508072003 51 342 2.0 5.0 0.00 0.00 0.00 61 1018.8
20260508071003 51 342 1.0 4.0 0.00 0.00 0.00 63 1018.7
20260508070003 51 342 1.0 3.0 0.00 0.00 0.00 63 1018.7
20260508065003 51 342 1.0 4.0 0.00 0.00 0.00 63 1018.6
20260508064003 50 342 1.0 3.0 0.00 0.00 0.00 63 1018.5
20260508063003 50 342 1.0 3.0 0.00 0.00 0.00 64 1018.4
20260508062003 49 342 1.0 3.0 0.00 0.00 0.00 64 1018.3
20260508061003 49 342 1.0 3.0 0.00 0.00 0.00 62 1018.1
20260508060003 48 342 0.0 2.0 0.00 0.00 0.00 61 1018.0
20260508055003 48 342 1.0 3.0 0.00 0.00 0.00 61 1017.9
20260508054003 47 342 1.0 2.0 0.00 0.00 0.00 61 1017.7
20260508053003 47 342 0.0 2.0 0.00 0.00 0.00 61 1017.5
20260508052003 47 342 1.0 2.0 0.00 0.00 0.00 62 1017.4
20260508051003 47 342 1.0 2.0 0.00 0.00 0.00 62 1017.3
20260508050003 47 342 0.0 3.0 0.00 0.00 0.00 62 1017.3
20260508045003 47 342 0.0 2.0 0.00 0.00 0.00 62 1017.1
20260508044003 48 342 0.0 3.0 0.00 0.00 0.00 62 1017.0
20260508043003 48 0 0.0 0.0 0.00 0.00 0.00 64 1016.8
20260508042003 46 0 0.0 0.0 0.00 0.00 0.00 70 1016.7
20260508041003 46 0 0.0 0.0 0.00 0.00 0.00 74 1016.5
20260508040003 45 0 0.0 0.0 0.00 0.00 0.00 76 1016.4
20260508035003 44 0 0.0 0.0 0.00 0.00 0.00 76 1016.2
20260508034003 43 0 0.0 0.0 0.00 0.00 0.00 74 1016.2
20260508033003 43 0 0.0 0.0 0.00 0.00 0.00 73 1016.0
20260508032003 43 0 0.0 0.0 0.00 0.00 0.00 71 1015.9
20260508031003 43 0 0.0 0.0 0.00 0.00 0.00 70 1015.7
20260508030003 43 0 0.0 0.0 0.00 0.00 0.00 70 1015.6
20260508025003 41 0 0.0 0.0 0.00 0.00 0.00 72 1015.5
20260508024003 41 0 0.0 0.0 0.00 0.00 0.00 73 1015.4
20260508023003 41 0 0.0 0.0 0.00 0.00 0.00 73 1015.3
20260508022003 41 0 0.0 0.0 0.00 0.00 0.00 72 1015.2
20260508021003 41 0 0.0 0.0 0.00 0.00 0.00 72 1015.1
20260508020003 41 0 0.0 0.0 0.00 0.00 0.00 72 1015.0
20260508015003 41 0 0.0 0.0 0.00 0.00 0.00 72 1015.0
20260508014003 42 0 0.0 0.0 0.00 0.00 0.00 72 1014.9
20260508013003 42 0 0.0 0.0 0.00 0.00 0.00 72 1014.9
20260508012003 42 0 0.0 0.0 0.00 0.00 0.00 72 1014.9
20260508011003 41 0 0.0 0.0 0.00 0.00 0.00 73 1015.0
20260508010003 41 0 0.0 0.0 0.00 0.00 0.00 74 1015.0
20260508005003 41 0 0.0 0.0 0.00 0.00 0.00 74 1015.1
20260508004003 42 0 0.0 0.0 0.00 0.00 0.00 73 1015.1
20260508003003 42 0 0.0 0.0 0.00 0.00 0.00 73 1015.0
20260508002003 42 0 0.0 0.0 0.00 0.00 0.00 73 1014.9
20260508001003 42 0 0.0 0.0 0.00 0.00 0.00 72 1014.9
20260508000003 42 0 0.0 0.0 0.00 0.00 0.00 72 1014.9
20260507235003 43 0 0.0 0.0 0.00 0.00 0.00 72 1014.8
20260507234003 43 0 0.0 0.0 0.00 0.00 0.00 72 1014.8
20260507233003 43 0 0.0 0.0 0.00 0.00 0.00 72 1014.7
20260507232003 43 0 0.0 0.0 0.00 0.00 0.00 71 1014.7
20260507231003 43 0 0.0 0.0 0.00 0.00 0.00 71 1014.6
20260507230003 43 0 0.0 0.0 0.00 0.00 0.00 71 1014.5
20260507225003 44 0 0.0 0.0 0.00 0.00 0.00 71 1014.5
20260507224003 44 0 0.0 0.0 0.00 0.00 0.00 70 1014.4
20260507223003 44 0 0.0 0.0 0.00 0.00 0.00 69 1014.5
20260507222003 44 0 0.0 0.0 0.00 0.00 0.00 69 1014.3
20260507221003 45 0 0.0 0.0 0.00 0.00 0.00 68 1014.3
20260507220003 45 0 0.0 0.0 0.00 0.00 0.00 68 1014.2
20260507215003 45 0 0.0 0.0 0.00 0.00 0.00 67 1014.2
20260507214003 45 0 0.0 0.0 0.00 0.00 0.00 67 1014.2
20260507213003 46 0 0.0 0.0 0.00 0.00 0.00 66 1014.1
20260507212003 46 0 0.0 0.0 0.00 0.00 0.00 66 1014.0
20260507211003 46 0 0.0 0.0 0.00 0.00 0.00 66 1013.9
20260507210004 46 0 0.0 0.0 0.00 0.00 0.00 65 1013.8
20260507205003 46 0 0.0 0.0 0.00 0.00 0.00 63 1013.7
20260507204003 46 0 0.0 0.0 0.00 0.00 0.00 57 1013.6
20260507203003 47 0 0.0 0.0 0.00 0.00 0.00 56 1013.5
20260507202003 47 0 0.0 0.0 0.00 0.00 0.00 56 1013.4
20260507201003 47 0 0.0 0.0 0.00 0.00 0.00 56 1013.1
20260507200003 47 0 0.0 0.0 0.00 0.00 0.00 56 1013.1
20260507195003 47 0 0.0 0.0 0.00 0.00 0.00 57 1012.9
20260507194003 48 0 0.0 0.0 0.00 0.00 0.00 56 1012.9
20260507193003 48 0 0.0 0.0 0.00 0.00 0.00 56 1012.8
20260507192003 48 0 0.0 0.0 0.00 0.00 0.00 55 1012.7
20260507191003 48 0 0.0 0.0 0.00 0.00 0.00 54 1012.6
20260507190004 49 342 0.0 2.0 0.00 0.00 0.00 54 1012.5
20260507185003 49 342 0.0 3.0 0.00 0.00 0.00 53 1012.5
20260507184003 49 342 0.0 3.0 0.00 0.00 0.00 53 1012.4
20260507183003 49 342 0.0 3.0 0.00 0.00 0.00 53 1012.3
20260507182003 49 342 0.0 2.0 0.00 0.00 0.00 53 1012.3
20260507181003 50 342 1.0 3.0 0.00 0.00 0.00 53 1012.3
20260507180003 50 342 0.0 2.0 0.00 0.00 0.00 53 1012.2
20260507175003 50 342 0.0 3.0 0.00 0.00 0.00 53 1012.2
20260507174003 50 342 0.0 3.0 0.00 0.00 0.00 53 1012.2
20260507173004 50 342 1.0 4.0 0.00 0.00 0.00 53 1012.2
20260507172003 50 342 1.0 4.0 0.00 0.00 0.00 53 1012.1
20260507171003 50 342 2.0 6.0 0.00 0.00 0.00 52 1012.0
20260507170003 51 341 1.0 7.0 0.00 0.00 0.00 52 1011.9
20260507165003 51 341 0.0 3.0 0.00 0.00 0.00 51 1011.9
20260507164003 51 340 1.0 4.0 0.00 0.00 0.00 51 1012.0
20260507163003 51 342 1.0 5.0 0.00 0.00 0.00 50 1011.9
20260507162003 52 152 1.0 7.0 0.00 0.00 0.00 50 1011.9
20260507161003 52 160 2.0 7.0 0.00 0.00 0.00 49 1011.7
20260507160003 52 225 0.0 4.0 0.00 0.00 0.00 49 1011.7
20260507155003 52 159 1.0 9.0 0.00 0.00 0.00 49 1011.7
20260507154003 52 155 1.0 11.0 0.00 0.00 0.00 48 1011.7
20260507153003 52 158 1.0 3.0 0.00 0.00 0.00 48 1011.8
20260507152003 52 152 1.0 6.0 0.00 0.00 0.00 47 1011.7